Weather observations for the past three days for
Ocala International Airport - Jim Taylor Field
Imperial (Metric)
Date Time (edt) Wind (mph) Vis. (mi.) Weather Sky Cond. Temperature (ºF) Relative Humidity Wind Chill (°F) Heat Index (°F) Pressure Precipitation (in)
Air Dwpt 6 hour altimeter (in) sea level (mb) 1 hr 3 hr 6 hr
Max. Min.
03 08:51 Vrbl 5 10.00 Mostly Cloudy BKN004 80.1 78.1 94% 86 30 1015.9
03 07:51 NE 6 0.50 Fog OVC002 77 77 78.1 77 100% 78 30 1015.9
03 06:51 NE 6 1.00 Fog/Mist SCT002 BKN036 OVC075 77 77 100% 78 29.97 1014.9
03 05:51 NE 3 3.00 Fog/Mist OVC002 77 77 100% 78 29.96 1014.4
03 04:51 Vrbl 3 10.00 Overcast OVC002 77 77 100% 78 29.96 1014.4
03 03:51 NE 6 8.00 Overcast OVC002 77 77 100% 78 29.96 1014.3
03 02:51 NE 3 10.00 A Few Clouds FEW005 78.1 77 97% 81 29.97 1015.0
03 01:51 NE 5 10.00 Fair CLR 78.1 77 81 78.1 97% 81 29.99 1015.5
03 00:51 E 5 10.00 A Few Clouds FEW008 79 77 94% 83 30.01 1016.1
02 23:51 NE 3 10.00 Overcast OVC008 79 77 94% 83 30 1015.9
02 22:51 NE 6 10.00 A Few Clouds FEW011 79 75.9 90% 83 30.01 1016.2
02 21:51 NE 7 10.00 Partly Cloudy SCT010 79 77 94% 83 30.01 1016.0
02 20:51 NE 9 10.00 A Few Clouds FEW012 80.1 75.9 87% 85 30 1015.9
02 19:51 NE 7 10.00 Light Rain FEW055 SCT070 OVC110 81 75.9 89.1 80.1 85% 87 29.98 1015.3
02 18:51 E 8 10.00 Partly Cloudy FEW022 SCT100 82.9 75.9 79% 91 29.98 1015.3
02 16:51 NE 9 10.00 Mostly Cloudy SCT036 SCT046 BKN055 86 75.9 72% 96 29.96 1014.5
02 15:51 N 5 10.00 Light Rain FEW050 BKN080 BKN095 82 77 85% 90 29.98 1015.2
02 14:51 Vrbl 5 10.00 Mostly Cloudy SCT017 BKN035 BKN085 84 78.1 82% 95 30 1015.7
02 13:51 N 3 6.00 Thunderstorm Light Rain Fog/Mist FEW017 SCT035 BKN085 80.1 77 88 78.1 90% 86 30.03 1016.9 0.07 0.31
02 12:51 Vrbl 3 0.75 Heavy Rain Fog/Mist BKN025 BKN033 78.1 75.9 93% 81 30.05 1017.4 0.24
02 11:51 NE 7 10.00 Mostly Cloudy BKN025 BKN033 87.1 77 72% 99 30.05 1017.4
02 10:51 NE 8 10.00 Mostly Cloudy BKN016 BKN027 86 78.1 77% 98 30.05 1017.6
02 09:51 N 6 10.00 Mostly Cloudy BKN012 82.9 77 82% 92 30.05 1017.5
02 08:51 NE 6 10.00 Fair CLR 81 77 88% 88 30.05 1017.5
02 07:51 N 3 10.00 Partly Cloudy SCT008 SCT040 78.1 77 78.1 75 97% 81 30.05 1017.5
02 06:51 N 3 10.00 Partly Cloudy SCT005 77 77 100% 78 30.04 1017.0
02 05:51 N 3 10.00 Fair CLR 77 75.9 96% 78 30.02 1016.5
02 04:51 N 3 10.00 Fair CLR 75.9 75.9 100% 75 30.01 1016.0
02 03:51 NW 3 10.00 Fair CLR 75 75 100% 72 30.01 1016.3
02 02:51 Calm 10.00 Fair CLR 75.9 75 97% 75 30.02 1016.5
02 01:51 Calm 10.00 Fair CLR 75.9 75 81 75.9 97% 75 30.03 1016.7
02 00:51 N 5 10.00 Fair CLR 77 75 94% 78 30.03 1016.8
01 23:51 N 3 10.00 Fair CLR 78.1 75.9 93% 81 30.05 1017.3
01 22:51 Calm 10.00 Fair CLR 79 75.9 90% 83 30.06 1017.7
01 21:51 N 3 9.00 Fair CLR 79 75.9 90% 83 30.05 1017.5
01 20:51 NE 5 10.00 Fair CLR 80.1 75.9 87% 85 30.04 1017.1
01 19:51 NE 6 10.00 Fair CLR 81 77 89.1 77 88% 88 30.03 1016.8 0.14
01 18:51 NE 7 10.00 Light Rain SCT038 BKN050 OVC080 82.9 78.1 85% 93 30.02 1016.5
01 17:51 Calm 10.00 Light Rain FEW050 SCT070 SCT085 81 78.1 91% 89 30.01 1016.3 0.01
01 16:51 Calm 10.00 Light Rain BKN100 BKN110 79 75.9 90% 83 30.02 1016.4 0.01 0.13
01 15:51 N 3 10.00 Light Rain FEW047 SCT110 78.1 75.9 93% 81 30.03 1016.9 0.01
01 14:51 E 21 G 32 1.50 Thunderstorm Heavy Rain Fog/Mist and Breezy BKN036 BKN041 78.1 75.9 93% 81 30.03 1016.7 0.11
01 13:51 N 9 10.00 Mostly Cloudy BKN020 BKN030 90 75 90 77 62% 100 30.04 1017.1
01 12:51 Vrbl 5 10.00 Mostly Cloudy BKN027 88 75 66% 98 30.06 1017.9
01 11:51 NE 7 10.00 Mostly Cloudy BKN027 87.1 75 67% 97 30.07 1018.3
01 10:51 Vrbl 3 10.00 Mostly Cloudy BKN015 84.9 77 77% 95 30.08 1018.6
01 09:51 E 5 10.00 Mostly Cloudy BKN006 81 77 88% 88 30.07 1018.2
01 08:51 N 5 4.00 Fog/Mist OVC004 78.1 77 97% 81 30.07 1018.2
01 07:51 Vrbl 3 3.00 Fog/Mist OVC002 77 75.9 78.1 75 96% 78 30.06 1017.8
01 06:51 N 3 6.00 Fog/Mist OVC002 75.9 75.9 100% 75 30.04 1017.1
01 05:51 NE 5 10.00 Overcast OVC004 77 75.9 96% 78 30.03 1016.7
01 04:51 Calm 10.00 Partly Cloudy SCT004 75.9 75 97% 75 30.02 1016.6
01 03:51 N 3 10.00 Fair CLR 75.9 75 97% 75 30.02 1016.6
01 02:51 N 5 10.00 Fair CLR 75.9 75 97% 75 30.04 1017.1
01 01:51 N 3 10.00 Fair CLR 78.1 75.9 82 77 93% 81 30.06 1017.9
01 00:51 Calm 10.00 Fair CLR 78.1 75.9 93% 81 30.07 1018.0
31 23:51 Calm 10.00 Fair CLR 78.1 75.9 93% 81 30.08 1018.5
31 22:51 Calm 10.00 Partly Cloudy SCT018 SCT070 78.1 75 90% 81 30.08 1018.7
31 21:51 Calm 10.00 Fair CLR 80.1 75 85% 85 30.07 1018.0
31 20:51 Calm 10.00 Fair CLR 81 75 82% 87 30.05 1017.5
31 19:51 Calm 10.00 Fair CLR 82 75 93 82 79% 89 30.04 1017.1
31 18:51 E 8 10.00 A Few Clouds FEW095 82.9 75 77% 90 30.03 1016.8
31 17:51 E 8 10.00 Mostly Cloudy SCT025 BKN046 84.9 75.9 75% 94 30.03 1016.7
31 16:51 Vrbl 5 10.00 Mostly Cloudy BKN040 93 73.9 54% 103 30.01 1016.2
31 15:51 N 8 10.00 Mostly Cloudy BKN046 91.9 73.9 56% 102 30.02 1016.4
31 14:51 NW 9 10.00 A Few Clouds FEW045 91 73 56% 100 30.02 1016.6
31 13:51 N 3 10.00 A Few Clouds FEW044 90 72 90 75 56% 97 30.06 1017.8
31 12:51 Vrbl 5 10.00 Partly Cloudy SCT036 89.1 73 59% 97 30.08 1018.7
31 11:51 N 7 10.00 Partly Cloudy SCT030 88 73.9 63% 97 30.1 1019.3
31 10:51 N 5 10.00 Partly Cloudy SCT020 84.9 75 72% 93 30.1 1019.0
31 09:51 Calm 10.00 Mostly Cloudy BKN004 79 77 94% 83 30.09 1018.9
Date Time (edt) Wind (mph) Vis. (mi.) Weather Sky Cond. Air Dwpt Max. Min. Relative Humidity Wind Chill (°F) Heat Index (°F) altimeter (in) sea level (mb) 1 hr 3 hr 6 hr
6 hour
Temperature (ºF) Pressure Precipitation (in)